Location: Pollockville
(51.1000°N, 111.5833°W)
Time: 17:22:08
(UTC+00:00)

Envisat - Visible Passes

Search period start: 27 November 2021 00:00
Search period end: 07 December 2021 00:00
Orbit: 764 x 766 km, 98.2° (Epoch: 26 November)

Date Brightness Start Highest point End Pass type
(mag) Time Alt. Az. Time Alt. Az. Time Alt. Az.
27 Nov 6.1 01:13:21 10° WSW 01:15:37 13° W 01:17:53 10° WNW visible
27 Nov 5.1 11:34:46 10° NE 11:38:56 25° E 11:43:06 10° SSE visible
27 Nov 3.0 13:13:18 10° N 13:18:17 55° WNW 13:23:13 10° SW visible
28 Nov 5.4 00:34:05 10° SSW 00:38:16 25° W 00:42:29 10° NW visible
28 Nov 6.0 10:59:26 10° ENE 11:01:36 13° E 11:03:44 10° ESE visible
28 Nov 3.1 12:36:21 10° NNE 12:41:28 78° ESE 12:46:33 10° S visible
28 Nov 4.2 14:16:20 10° N 14:19:56 20° WNW 14:23:33 10° WSW visible
28 Nov 4.1 23:56:13 10° S 00:01:08 49° W 00:06:05 10° NNW visible
29 Nov 4.3 11:59:41 10° NNE 12:04:28 39° E 12:09:13 10° SSE visible
29 Nov 3.5 13:38:51 10° N 13:43:27 35° WNW 13:48:02 10° SW visible
30 Nov 5.9 01:00:49 10° SW 01:03:53 16° W 01:06:59 10° NW visible
30 Nov 5.4 11:23:30 10° NE 11:27:16 20° E 11:31:00 10° SE visible
30 Nov 2.9 13:01:42 10° N 13:06:46 67° WNW 13:11:48 10° SSW visible
01 Dec 5.1 00:22:08 10° SSW 00:26:37 31° W 00:31:07 10° NNW visible
01 Dec 3.4 12:24:49 10° NNE 12:29:54 64° ESE 12:34:56 10° S visible
01 Dec 4.0 14:04:32 10° N 14:08:31 24° WNW 14:12:29 10° WSW visible
02 Dec 4.7 11:48:16 10° NNE 11:52:50 32° E 11:57:22 10° SSE visible
02 Dec 3.3 13:27:11 10° N 13:31:58 42° WNW 13:36:44 10° SW visible
03 Dec 5.8 00:48:32 10° SW 00:52:12 20° W 00:55:51 10° NW visible
03 Dec 5.7 11:12:20 10° NE 11:15:34 17° E 11:18:46 10° SE visible
03 Dec 2.9 12:50:07 10° NNE 12:55:14 81° WNW 13:00:19 10° SSW visible
03 Dec 4.4 14:30:29 10° NNW 14:33:30 16° NW 14:36:30 10° W visible
04 Dec 4.7 00:10:15 10° SSW 00:14:58 38° W 00:19:43 10° NNW visible
04 Dec 3.8 12:13:19 10° NNE 12:18:18 52° E 12:23:15 10° S visible
04 Dec 3.8 13:52:47 10° N 13:57:04 28° WNW 14:01:20 10° WSW visible
05 Dec 6.2 01:15:57 10° WSW 01:17:52 12° W 01:19:48 10° WNW visible
05 Dec 5.0 11:36:53 10° NE 11:41:10 26° E 11:45:25 10° SSE visible
05 Dec 3.1 13:15:32 10° N 13:20:28 51° WNW 13:25:23 10° SW visible
06 Dec 5.5 00:36:26 10° SW 00:40:30 24° W 00:44:36 10° NW visible
06 Dec 5.9 11:01:22 10° NE 11:03:50 13° E 11:06:18 10° ESE visible
06 Dec 3.0 12:38:33 10° NNE 12:43:40 83° ESE 12:48:46 10° SSW visible
06 Dec 4.3 14:18:36 10° NNW 14:22:06 19° NW 14:25:35 10° W visible
